TimeMST,TemperatureF,Dew PointF,Humidity,Sea Level PressureIn,VisibilityMPH,Wind Direction,Wind SpeedMPH,Gust SpeedMPH,PrecipitationIn,Events,Conditions,WindDirDegrees,DateUTC
12:35 AM,22.5,15.6,75,30.11,10.0,West,4.6,-,N/A,,Clear,280,2013-01-23 07:35:00
12:55 AM,21.9,14.9,74,30.10,10.0,SW,3.5,-,N/A,,Clear,230,2013-01-23 07:55:00
12:57 AM,21.2,15.8,80,30.10,10.0,SW,4.6,-,N/A,,Clear,230,2013-01-23 07:57:00
1:15 AM,23.0,15.3,72,30.10,10.0,Calm,Calm,-,N/A,,Clear,0,2013-01-23 08:15:00
1:35 AM,21.7,14.2,73,30.11,10.0,West,3.5,-,N/A,,Clear,270,2013-01-23 08:35:00
1:55 AM,21.7,14.7,74,30.11,10.0,West,5.8,-,N/A,,Clear,280,2013-01-23 08:55:00
2:41 AM,21.2,15.8,80,30.10,10.0,West,4.6,-,N/A,,Clear,260,2013-01-23 09:41:00
2:55 AM,19.4,12.9,76,30.10,10.0,West,3.5,-,N/A,,Clear,270,2013-01-23 09:55:00
3:15 AM,20.7,13.6,74,30.09,10.0,West,3.5,-,N/A,,Clear,270,2013-01-23 10:15:00
3:18 AM,21.2,14.0,74,30.09,10.0,West,3.5,-,N/A,,Clear,270,2013-01-23 10:18:00
3:35 AM,21.4,13.3,71,30.09,10.0,WNW,4.6,-,N/A,,Clear,290,2013-01-23 10:35:00
3:55 AM,19.9,13.1,75,30.09,10.0,West,3.5,-,N/A,,Clear,270,2013-01-23 10:55:00
4:15 AM,19.2,13.1,77,30.08,10.0,West,6.9,-,N/A,,Clear,260,2013-01-23 11:15:00
4:35 AM,19.2,13.3,78,30.09,10.0,West,5.8,-,N/A,,Clear,260,2013-01-23 11:35:00
4:55 AM,19.2,13.5,78,30.08,10.0,Calm,Calm,-,N/A,,Clear,0,2013-01-23 11:55:00
5:15 AM,18.7,13.3,79,30.09,10.0,West,4.6,-,N/A,,Clear,280,2013-01-23 12:15:00
5:35 AM,19.9,13.6,77,30.08,10.0,West,4.6,-,N/A,,Clear,260,2013-01-23 12:35:00
5:55 AM,19.6,14.0,79,30.08,10.0,Calm,Calm,-,N/A,,Clear,0,2013-01-23 12:55:00
6:15 AM,21.0,15.1,78,30.08,10.0,West,6.9,-,N/A,,Clear,260,2013-01-23 13:15:00
6:35 AM,21.2,15.6,79,30.09,10.0,West,4.6,-,N/A,,Clear,260,2013-01-23 13:35:00
6:55 AM,21.2,16.0,80,30.09,10.0,West,3.5,-,N/A,,Clear,270,2013-01-23 13:55:00
7:15 AM,22.8,15.8,74,30.10,10.0,West,5.8,-,N/A,,Clear,270,2013-01-23 14:15:00
7:35 AM,22.5,16.3,77,30.11,10.0,WSW,5.8,-,N/A,,Clear,250,2013-01-23 14:35:00
7:55 AM,23.7,17.2,76,30.11,10.0,West,5.8,-,N/A,,Clear,260,2013-01-23 14:55:00
8:15 AM,25.3,17.8,73,30.11,10.0,WSW,5.8,-,N/A,,Clear,250,2013-01-23 15:15:00
8:35 AM,26.8,18.7,72,30.11,10.0,West,10.4,-,N/A,,Clear,260,2013-01-23 15:35:00
8:55 AM,27.9,18.7,68,30.13,10.0,West,6.9,-,N/A,,Clear,260,2013-01-23 15:55:00
9:15 AM,30.0,19.2,64,30.14,10.0,West,8.1,-,N/A,,Clear,260,2013-01-23 16:15:00
9:35 AM,31.3,19.4,61,30.15,10.0,Calm,Calm,-,N/A,,Clear,0,2013-01-23 16:35:00
9:55 AM,32.9,19.4,58,30.17,10.0,ENE,4.6,-,N/A,,Clear,70,2013-01-23 16:55:00
10:15 AM,35.6,17.8,48,30.18,10.0,NNE,5.8,-,N/A,,Clear,20,2013-01-23 17:15:00
10:35 AM,40.6,14.5,35,30.18,10.0,ENE,6.9,-,N/A,,Clear,60,2013-01-23 17:35:00
10:55 AM,41.5,15.3,35,30.17,10.0,East,6.9,-,N/A,,Clear,100,2013-01-23 17:55:00
11:15 AM,40.5,15.6,37,30.17,10.0,East,8.1,-,N/A,,Clear,80,2013-01-23 18:15:00
11:35 AM,40.3,17.2,39,30.16,10.0,East,6.9,-,N/A,,Clear,100,2013-01-23 18:35:00
11:55 AM,40.3,18.3,41,30.16,10.0,East,6.9,-,N/A,,Clear,90,2013-01-23 18:55:00
12:15 PM,41.9,17.4,37,30.15,10.0,East,8.1,-,N/A,,Clear,90,2013-01-23 19:15:00
12:35 PM,41.2,18.3,40,30.15,10.0,East,8.1,-,N/A,,Clear,90,2013-01-23 19:35:00
12:55 PM,41.0,19.2,42,30.15,10.0,East,8.1,-,N/A,,Clear,100,2013-01-23 19:55:00
1:15 PM,41.0,19.8,43,30.15,10.0,East,8.1,-,N/A,,Clear,100,2013-01-23 20:15:00
1:35 PM,42.4,19.2,39,30.16,10.0,ENE,10.4,-,N/A,,Clear,60,2013-01-23 20:35:00
1:55 PM,42.1,19.0,40,30.17,10.0,ENE,11.5,-,N/A,,Clear,70,2013-01-23 20:55:00
2:15 PM,41.5,19.2,41,30.18,10.0,East,12.7,-,N/A,,Clear,80,2013-01-23 21:15:00
2:35 PM,40.1,19.4,43,30.18,10.0,ENE,13.8,-,N/A,,Clear,70,2013-01-23 21:35:00
2:55 PM,40.6,19.2,42,30.18,10.0,ENE,15.0,-,N/A,,Clear,70,2013-01-23 21:55:00
3:15 PM,38.5,19.0,46,30.18,10.0,East,10.4,-,N/A,,Clear,80,2013-01-23 22:15:00
3:35 PM,36.9,18.9,48,30.19,10.0,East,12.7,-,N/A,,Clear,80,2013-01-23 22:35:00
3:55 PM,35.1,19.0,52,30.19,10.0,East,13.8,-,N/A,,Clear,80,2013-01-23 22:55:00
4:15 PM,33.3,19.0,56,30.19,10.0,East,11.5,-,N/A,,Clear,80,2013-01-23 23:15:00
4:35 PM,32.0,18.5,58,30.21,10.0,East,12.7,-,N/A,,Clear,80,2013-01-23 23:35:00
4:55 PM,31.3,18.5,59,30.22,10.0,ENE,11.5,-,N/A,,Clear,70,2013-01-23 23:55:00
5:15 PM,30.9,18.5,60,30.22,10.0,ENE,11.5,-,N/A,,Clear,70,2013-01-24 00:15:00
5:35 PM,30.2,18.5,62,30.24,10.0,ENE,9.2,-,N/A,,Clear,60,2013-01-24 00:35:00
5:55 PM,29.3,18.3,64,30.24,10.0,ENE,9.2,-,N/A,,Clear,70,2013-01-24 00:55:00
6:15 PM,28.8,18.0,64,30.24,10.0,ENE,11.5,-,N/A,,Clear,70,2013-01-24 01:15:00
6:35 PM,28.4,18.0,65,30.24,10.0,East,10.4,-,N/A,,Clear,80,2013-01-24 01:35:00
6:55 PM,27.5,17.6,66,30.25,10.0,East,10.4,-,N/A,,Clear,80,2013-01-24 01:55:00
7:15 PM,27.0,17.4,67,30.26,10.0,East,11.5,-,N/A,,Clear,80,2013-01-24 02:15:00
7:35 PM,26.4,16.7,67,30.26,10.0,East,12.7,-,N/A,,Clear,80,2013-01-24 02:35:00
7:55 PM,25.9,17.1,69,30.26,10.0,East,8.1,-,N/A,,Clear,100,2013-01-24 02:55:00
8:15 PM,25.2,15.8,68,30.27,10.0,East,11.5,-,N/A,,Clear,100,2013-01-24 03:15:00
8:35 PM,24.4,14.9,67,30.28,10.0,East,11.5,-,N/A,,Clear,90,2013-01-24 03:35:00
8:55 PM,23.9,14.7,68,30.29,10.0,East,10.4,-,N/A,,Clear,100,2013-01-24 03:55:00
9:15 PM,23.2,14.5,70,30.28,10.0,ESE,9.2,-,N/A,,Clear,110,2013-01-24 04:15:00
9:35 PM,22.6,13.8,69,30.28,10.0,ESE,10.4,-,N/A,,Clear,110,2013-01-24 04:35:00
9:55 PM,22.1,13.8,70,30.28,10.0,East,10.4,-,N/A,,Clear,100,2013-01-24 04:55:00
10:15 PM,21.2,13.3,72,30.28,10.0,ESE,6.9,-,N/A,,Clear,110,2013-01-24 05:15:00
10:35 PM,20.5,13.1,73,30.29,10.0,ESE,8.1,-,N/A,,Clear,110,2013-01-24 05:35:00
10:55 PM,20.3,13.1,74,30.28,10.0,ESE,6.9,-,N/A,,Clear,110,2013-01-24 05:55:00
11:15 PM,19.4,12.9,76,30.28,10.0,ESE,5.8,-,N/A,,Clear,110,2013-01-24 06:15:00
11:35 PM,19.2,12.9,76,30.28,10.0,ESE,5.8,-,N/A,,Clear,110,2013-01-24 06:35:00
11:55 PM,18.9,12.9,78,30.28,10.0,ESE,5.8,-,N/A,,Clear,120,2013-01-24 06:55:00